NORTHERN NASSAU  -  Coastal Flood Statement Coastal Flood Statement     Rip Current Statement Rip Current Statement        NORTHERN QUEENS  -  Coastal Flood Statement Coastal Flood Statement     Rip Current Statement Rip Current Statement        SOUTHERN NASSAU  -  Coastal Flood Statement Coastal Flood Statement     Rip Current Statement Rip Current Statement        SOUTHERN QUEENS  -  Coastal Flood Statement Coastal Flood Statement     Rip Current Statement Rip Current Statement        NORTHEAST SUFFOLK  -  Rip Current Statement Rip Current Statement        NORTHWEST SUFFOLK  -  Rip Current Statement Rip Current Statement        SOUTHEAST SUFFOLK  -  Rip Current Statement Rip Current Statement        SOUTHWEST SUFFOLK  -  Rip Current Statement Rip Current Statement      

Active alerts

Northern Queens
  Details for Northern Queens Coastal Flood Statement  +1 additional alert
Southern Queens
  Details for Southern Queens Coastal Flood Statement  +1 additional alert
Northern Nassau
  Details for Northern Nassau Coastal Flood Statement  +1 additional alert
Southern Nassau
  Details for Southern Nassau Coastal Flood Statement  +1 additional alert
Northwest Suffolk
  Details for Northwest Suffolk Rip Current Statement
Southwest Suffolk
  Details for Southwest Suffolk Rip Current Statement
Northeast Suffolk
  Details for Northeast Suffolk Rip Current Statement
Southeast Suffolk
  Details for Southeast Suffolk Rip Current Statement


WXM80 ListenWXM80 Stop

You find our weather info also at:

UK Metoffice

WeatherCloud

Weather Underground

Northeastern Weather Network

AWEKAS

Citizen Weather Observer Program (CWOP)

HAMweather, WeatherForYou, PWS Weather


Weather Underground History page Text

Daily Summary for December 11, 2017 Units:  Metric    English   Both
« Previous Day
Next Day »
Daily Weekly Monthly Yearly Custom
  High: Low: Average:
Temperature: 5.1 °C 0.2 °C 2.2 °C
Dew Point: -0.7 °C -3.1 °C -2.2 °C
Humidity: 85 % 61 % 73 %
Wind Speed: 14.8 km/h 0 km/h 3.5 km/h
Wind Gust: 24.1 km/h - -
Wind:- - WSW
Pressure: 1016.8 hPa 1014.1 hPa -
Precipitation: 0 mm    
Historical Graphs
 
 
Tabular Data for December 11, 2017
Time Temperature Dew Point Pressure Wind Wind Speed Wind Gust Humidity Rainfall Rate (Hourly)
00:05 1.7 °C -3 °C 1015.8 hPa SSW 9 km/h 13 km/h 71 % 0 mm
00:10 1.7 °C -3 °C 1016.1 hPa SSW 5.6 km/h 11.1 km/h 71 % 0 mm
00:15 1.8 °C -2.9 °C 1015.8 hPa SW 4.5 km/h 11.1 km/h 71 % 0 mm
00:20 1.8 °C -2.9 °C 1015.8 hPa West 2.4 km/h 7.4 km/h 71 % 0 mm
00:25 1.8 °C -2.9 °C 1015.8 hPa WSW 4.2 km/h 9.7 km/h 71 % 0 mm
00:30 1.7 °C -3 °C 1015.8 hPa SW 3.9 km/h 14.8 km/h 71 % 0 mm
00:31 1.7 °C -3 °C 1015.8 hPa SSW 4 km/h 14.8 km/h 71 % 0 mm
00:46 1.7 °C -3 °C 1015.5 hPa SSW 5.3 km/h 9.3 km/h 71 % 0 mm
00:51 1.7 °C -3 °C 1015.5 hPa SW 6.6 km/h 9.3 km/h 71 % 0 mm
01:01 1.7 °C -3 °C 1015.5 hPa SW 7.2 km/h 9.3 km/h 71 % 0 mm
01:16 1.7 °C -3 °C 1015.5 hPa SW 2.1 km/h 5.6 km/h 71 % 0 mm
01:21 1.7 °C -2.8 °C 1015.5 hPa SSW 3.5 km/h 6.4 km/h 72 % 0 mm
01:26 1.7 °C -2.8 °C 1015.5 hPa WSW 5.6 km/h 9.7 km/h 72 % 0 mm
01:31 1.7 °C -2.8 °C 1015.5 hPa SSW 3.1 km/h 5.6 km/h 72 % 0 mm
01:36 1.7 °C -2.8 °C 1015.5 hPa WSW 1.8 km/h 5.6 km/h 72 % 0 mm
01:41 1.7 °C -2.8 °C 1015.5 hPa SW 0.6 km/h 5.6 km/h 72 % 0 mm
01:47 1.7 °C -3.1 °C 1015.5 hPa SSW 3.9 km/h 11.1 km/h 71 % 0 mm
01:52 1.7 °C -2.8 °C 1015.5 hPa SSW 5 km/h 11.1 km/h 72 % 0 mm
01:57 1.7 °C -2.8 °C 1015.5 hPa West 4 km/h 7.4 km/h 72 % 0 mm
02:07 1.7 °C -3.1 °C 1015.5 hPa SW 4.2 km/h 9.3 km/h 71 % 0 mm
02:17 1.7 °C -3.1 °C 1015.1 hPa SSW 2.6 km/h 7.4 km/h 71 % 0 mm
02:22 1.7 °C -3.1 °C 1015.5 hPa Calm   1.9 km/h 71 % 0 mm
02:27 1.6 °C -3.1 °C 1015.5 hPa SW 4.3 km/h 13 km/h 71 % 0 mm
02:32 1.6 °C -3.1 °C 1015.1 hPa SW 2.7 km/h 5.6 km/h 71 % 0 mm
02:37 1.6 °C -2.9 °C 1015.1 hPa SSW 5.6 km/h 7.4 km/h 72 % 0 mm
02:42 1.6 °C -2.9 °C 1015.1 hPa South 3.5 km/h 9.3 km/h 72 % 0 mm
02:52 1.5 °C -3 °C 1014.8 hPa WSW 2.6 km/h 5.6 km/h 72 % 0 mm
03:02 1.4 °C -3.1 °C 1015.1 hPa SSW 3.4 km/h 7.4 km/h 72 % 0 mm
03:07 1.4 °C -3.1 °C 1014.8 hPa SSW 2.4 km/h 5.6 km/h 72 % 0 mm
03:12 1.4 °C -2.9 °C 1015.1 hPa WSW 1.3 km/h 5.6 km/h 73 % 0 mm
03:17 1.4 °C -2.9 °C 1014.8 hPa SW 2.3 km/h 7.4 km/h 73 % 0 mm
03:27 1.3 °C -3 °C 1014.8 hPa SSW 2.3 km/h 6.4 km/h 73 % 0 mm
03:37 1.3 °C -3 °C 1015.1 hPa SW 1.4 km/h 3.7 km/h 73 % 0 mm
03:40 1.3 °C -3 °C 1015.1 hPa SW 2.1 km/h 5.6 km/h 73 % 0 mm
03:45 1.3 °C -2.8 °C 1014.8 hPa SSW 2.1 km/h 5.6 km/h 74 % 0 mm
03:55 1.3 °C -2.8 °C 1015.1 hPa SSW 2.7 km/h 8 km/h 74 % 0 mm
04:05 1.3 °C -2.8 °C 1015.1 hPa SW 0.6 km/h 3.7 km/h 74 % 0 mm
04:11 1.3 °C -2.8 °C 1015.1 hPa SW 6.1 km/h 9.3 km/h 74 % 0 mm
04:16 1.3 °C -2.8 °C 1015.1 hPa SSW 2.9 km/h 7.4 km/h 74 % 0 mm
04:21 1.3 °C -2.8 °C 1015.1 hPa SW 6.6 km/h 8 km/h 74 % 0 mm
04:31 1.3 °C -2.8 °C 1015.1 hPa SSW 2.4 km/h 6.4 km/h 74 % 0 mm
04:37 1.3 °C -2.8 °C 1015.1 hPa SSW 0.6 km/h 1.9 km/h 74 % 0 mm
04:42 1.3 °C -2.8 °C 1015.1 hPa SW 3.1 km/h 5.6 km/h 74 % 0 mm
04:47 1.4 °C -2.7 °C 1015.5 hPa SW 2.9 km/h 5.6 km/h 74 % 0 mm
04:52 1.4 °C -2.7 °C 1015.5 hPa SSW 3.7 km/h 9.3 km/h 74 % 0 mm
04:57 1.4 °C -2.7 °C 1015.5 hPa SW 2.9 km/h 5.6 km/h 74 % 0 mm
05:02 1.4 °C -2.7 °C 1015.5 hPa SSW 3.5 km/h 9.3 km/h 74 % 0 mm
05:07 1.4 °C -2.7 °C 1015.5 hPa WSW 11.1 km/h 18.5 km/h 74 % 0 mm
05:12 1.5 °C -2.8 °C 1015.5 hPa West 10.1 km/h 14.8 km/h 73 % 0 mm
05:17 1.6 °C -2.8 °C 1015.5 hPa SW 8.5 km/h 14.8 km/h 73 % 0 mm
05:22 1.6 °C -2.5 °C 1015.8 hPa WSW 8.2 km/h 16.1 km/h 74 % 0 mm
05:27 1.7 °C -2.5 °C 1015.8 hPa SW 8.2 km/h 11.3 km/h 74 % 0 mm
05:32 1.7 °C -2.7 °C 1015.5 hPa SW 1.6 km/h 6.4 km/h 73 % 0 mm
05:37 1.7 °C -2.7 °C 1015.5 hPa South 8.7 km/h 14.8 km/h 73 % 0 mm
05:42 1.7 °C -2.5 °C 1015.5 hPa WSW 6.4 km/h 7.4 km/h 74 % 0 mm
05:47 1.7 °C -2.6 °C 1015.8 hPa SW 8.4 km/h 11.3 km/h 73 % 0 mm
05:53 1.7 °C -2.4 °C 1015.8 hPa West 9.7 km/h 11.1 km/h 74 % 0 mm
05:58 1.7 °C -1.9 °C 1015.8 hPa WNW 5.1 km/h 20.4 km/h 77 % 0 mm
06:03 1.7 °C -1.4 °C 1016.1 hPa WSW 12.2 km/h 24.1 km/h 80 % 0 mm
06:08 1.6 °C -1.3 °C 1016.1 hPa WSW 6.4 km/h 16.7 km/h 81 % 0 mm
06:13 1.5 °C -1.4 °C 1015.8 hPa SSW 9.3 km/h 14.8 km/h 81 % 0 mm
06:23 1.3 °C -1.6 °C 1016.1 hPa South 1.8 km/h 5.6 km/h 81 % 0 mm
06:28 1.3 °C -1.6 °C 1016.1 hPa SSW 7.1 km/h 9.3 km/h 81 % 0 mm
06:33 1.2 °C -1.7 °C 1016.1 hPa SW 4.3 km/h 5.6 km/h 81 % 0 mm
06:38 1.1 °C -1.8 °C 1016.1 hPa SSW 5.5 km/h 13 km/h 81 % 0 mm
06:43 1.1 °C -1.8 °C 1016.1 hPa SSW 6.9 km/h 11.1 km/h 81 % 0 mm
06:53 1 °C -1.9 °C 1016.1 hPa SSW 1.8 km/h 5.6 km/h 81 % 0 mm
07:04 0.8 °C -2.1 °C 1016.1 hPa SW 4.5 km/h 9.3 km/h 81 % 0 mm
07:09 0.7 °C -2 °C 1016.1 hPa SW 1.1 km/h 3.7 km/h 82 % 0 mm
07:14 0.7 °C -2.1 °C 1015.8 hPa SW 2.3 km/h 5.6 km/h 82 % 0 mm
07:19 0.6 °C -2.2 °C 1016.1 hPa SW 0.5 km/h 3.2 km/h 82 % 0 mm
07:24 0.5 °C -2.4 °C 1016.1 hPa SW 1.6 km/h 3.7 km/h 81 % 0 mm
07:35 0.3 °C -2.4 °C 1016.1 hPa SSW 3.9 km/h 5.6 km/h 82 % 0 mm
07:40 0.3 °C -2.3 °C 1016.1 hPa SSW 5.3 km/h 9.3 km/h 83 % 0 mm
07:45 0.3 °C -2.3 °C 1016.1 hPa SSW 1.9 km/h 5.6 km/h 83 % 0 mm
07:50 0.2 °C -2.2 °C 1016.1 hPa SSW 3.9 km/h 8 km/h 84 % 0 mm
07:55 0.2 °C -2.2 °C 1016.1 hPa SW 4.5 km/h 9.3 km/h 84 % 0 mm
08:00 0.2 °C -2.2 °C 1016.1 hPa SSW 1.6 km/h 5.6 km/h 84 % 0 mm
08:11 0.3 °C -1.9 °C 1016.5 hPa SW 4.2 km/h 7.4 km/h 85 % 0 mm
08:16 0.3 °C -1.9 °C 1016.8 hPa SW 2.9 km/h 9.7 km/h 85 % 0 mm
08:21 0.3 °C -1.9 °C 1016.8 hPa SSW 5 km/h 9.3 km/h 85 % 0 mm
08:31 0.4 °C -1.8 °C 1016.5 hPa South 2.9 km/h 9.3 km/h 85 % 0 mm
08:36 0.5 °C -1.7 °C 1016.8 hPa SW 1 km/h 5.6 km/h 85 % 0 mm
08:41 0.6 °C -1.7 °C 1016.8 hPa South 5.5 km/h 7.4 km/h 85 % 0 mm
08:51 0.7 °C -1.7 °C 1016.8 hPa SW 8.2 km/h 16.7 km/h 84 % 0 mm
08:56 0.8 °C -1.8 °C 1016.5 hPa SW 3.9 km/h 16.7 km/h 83 % 0 mm
09:01 0.9 °C -1.7 °C 1016.5 hPa SW 8.2 km/h 12.9 km/h 83 % 0 mm
09:12 1.1 °C -1.5 °C 1016.5 hPa SSW 6.6 km/h 9.7 km/h 83 % 0 mm
09:32 1.8 °C -1.4 °C 1016.5 hPa SW 6.1 km/h 11.1 km/h 79 % 0 mm
09:37 2 °C -1.3 °C 1016.8 hPa WSW 10.8 km/h 16.7 km/h 79 % 0 mm
09:42 2.2 °C -1.2 °C 1016.5 hPa SW 7.7 km/h 13 km/h 78 % 0 mm
09:47 2.4 °C -1 °C 1016.8 hPa SW 9 km/h 18.5 km/h 78 % 0 mm
09:52 2.7 °C -0.9 °C 1016.5 hPa WSW 6.6 km/h 13 km/h 77 % 0 mm
09:57 2.8 °C -0.8 °C 1016.5 hPa SW 5.1 km/h 11.1 km/h 77 % 0 mm
10:02 3.1 °C -0.7 °C 1016.8 hPa SW 4.5 km/h 9.3 km/h 76 % 0 mm
10:07 3.3 °C -0.7 °C 1016.8 hPa WSW 6.8 km/h 16.1 km/h 75 % 0 mm
10:12 3.4 °C -0.8 °C 1016.8 hPa SW 11.6 km/h 16.7 km/h 74 % 0 mm
10:17 3.6 °C -0.8 °C 1016.8 hPa WSW 8.5 km/h 13 km/h 73 % 0 mm
10:22 3.7 °C -0.7 °C 1016.8 hPa WSW 3.5 km/h 11.1 km/h 73 % 0 mm
10:27 3.8 °C -1 °C 1016.8 hPa West 3.9 km/h 5.6 km/h 71 % 0 mm
10:32 3.9 °C -0.9 °C 1016.8 hPa West 14.8 km/h 20.4 km/h 71 % 0 mm
10:37 3.9 °C -1.1 °C 1016.8 hPa NW 5.3 km/h 14.8 km/h 70 % 0 mm
10:42 3.9 °C -1.1 °C 1016.8 hPa WNW 3.7 km/h 12.9 km/h 70 % 0 mm
10:48 3.9 °C -1.1 °C 1016.8 hPa WNW 8.4 km/h 14.5 km/h 70 % 0 mm
10:53 3.9 °C -1.3 °C 1016.8 hPa West 6.8 km/h 14.8 km/h 69 % 0 mm
11:03 3.8 °C -1.2 °C 1016.8 hPa WNW 8.2 km/h 18.5 km/h 70 % 0 mm
11:08 3.8 °C -1.2 °C 1016.5 hPa West 11.6 km/h 18.5 km/h 70 % 0 mm
11:13 3.7 °C -1.2 °C 1016.5 hPa West 6.8 km/h 13 km/h 70 % 0 mm
11:23 3.7 °C -1.2 °C 1016.5 hPa West 10.5 km/h 18.5 km/h 70 % 0 mm
11:33 3.7 °C -1.4 °C 1016.5 hPa West 12.6 km/h 22.2 km/h 69 % 0 mm
11:38 3.7 °C -1.2 °C 1016.5 hPa West 7.6 km/h 14.8 km/h 70 % 0 mm
11:48 3.7 °C -1.1 °C 1016.1 hPa West 8.2 km/h 13 km/h 71 % 0 mm
11:53 3.7 °C -1.1 °C 1016.1 hPa WNW 6.3 km/h 9.7 km/h 71 % 0 mm
12:03 3.8 °C -1.4 °C 1015.8 hPa WNW 3.7 km/h 9.3 km/h 69 % 0 mm
12:08 3.8 °C -1.3 °C 1015.8 hPa SW 5.8 km/h 11.3 km/h 69 % 0 mm
12:13 3.9 °C -1.2 °C 1015.8 hPa SW 6.4 km/h 9.3 km/h 69 % 0 mm
12:18 4.1 °C -0.9 °C 1015.8 hPa West 7.4 km/h 11.1 km/h 70 % 0 mm
12:23 4.2 °C -0.9 °C 1015.8 hPa West 5.8 km/h 5.8 km/h 69 % 0 mm
12:28 4.3 °C -1.3 °C 1015.8 hPa WNW 9 km/h 16.7 km/h 67 % 0 mm
12:33 4.3 °C -1.3 °C 1015.5 hPa West 5 km/h 13 km/h 67 % 0 mm
12:44 4.5 °C -1.1 °C 1015.1 hPa North 5.8 km/h 11.1 km/h 67 % 0 mm
12:49 4.6 °C -1.3 °C 1015.5 hPa West 3.2 km/h 7.4 km/h 66 % 0 mm
12:54 4.6 °C -1.2 °C 1015.1 hPa WSW 9.5 km/h 14.8 km/h 66 % 0 mm
12:59 4.7 °C -1.3 °C 1015.1 hPa WNW 7.2 km/h 11.1 km/h 65 % 0 mm
13:04 4.7 °C -1.3 °C 1015.1 hPa West 7.9 km/h 11.1 km/h 65 % 0 mm
13:09 4.7 °C -1.3 °C 1015.1 hPa NW 9.8 km/h 13 km/h 65 % 0 mm
13:14 4.8 °C -1.3 °C 1015.1 hPa WNW 4 km/h 5.6 km/h 65 % 0 mm
13:29 4.9 °C -1.3 °C 1015.1 hPa SW 6.3 km/h 8 km/h 64 % 0 mm
13:39 4.9 °C -1.5 °C 1015.1 hPa WNW 9.3 km/h 13 km/h 63 % 0 mm
13:44 5 °C -1.3 °C 1015.1 hPa NW 7.9 km/h 14.8 km/h 64 % 0 mm
13:49 5 °C -1.4 °C 1015.5 hPa WNW 1.4 km/h 7.4 km/h 63 % 0 mm
13:55 5.1 °C -1.4 °C 1015.5 hPa West 2.7 km/h 9.3 km/h 63 % 0 mm
14:00 5 °C -1.9 °C 1015.5 hPa WSW 7.9 km/h 13 km/h 61 % 0 mm
14:05 5 °C -1.9 °C 1015.5 hPa WNW 9.7 km/h 13 km/h 61 % 0 mm
14:10 4.9 °C -1.9 °C 1015.5 hPa WSW 7.9 km/h 13 km/h 61 % 0 mm
14:15 4.9 °C -1.7 °C 1015.1 hPa West 5.3 km/h 9.3 km/h 62 % 0 mm
14:20 4.9 °C -1.8 °C 1015.1 hPa WNW 5.1 km/h 9.7 km/h 62 % 0 mm
14:25 4.8 °C -1.8 °C 1015.1 hPa WNW 4.8 km/h 9.3 km/h 62 % 0 mm
14:40 4.6 °C -2.1 °C 1015.5 hPa WSW 6.3 km/h 9.7 km/h 62 % 0 mm
14:55 4.4 °C -2 °C 1015.8 hPa SSW 1.8 km/h 7.4 km/h 63 % 0 mm
15:00 4.4 °C -2.1 °C 1015.8 hPa WSW 4 km/h 6.4 km/h 63 % 0 mm
15:05 4.3 °C -2.1 °C 1015.8 hPa WSW 2.4 km/h 5.6 km/h 63 % 0 mm
15:15 4.2 °C -2.4 °C 1015.8 hPa WNW 4.7 km/h 7.4 km/h 62 % 0 mm
15:20 4.2 °C -2.4 °C 1015.8 hPa West 1 km/h 5.6 km/h 62 % 0 mm
15:26 4.2 °C -2.3 °C 1015.8 hPa West 1.6 km/h 9.7 km/h 63 % 0 mm
15:31 4.2 °C -2.1 °C 1015.8 hPa WNW 3.2 km/h 4.8 km/h 64 % 0 mm
15:36 4.1 °C -2.1 °C 1015.8 hPa WNW 4.8 km/h 12.9 km/h 64 % 0 mm
15:41 4.1 °C -2.4 °C 1015.8 hPa Calm   11.3 km/h 63 % 0 mm
15:46 4.1 °C -2.4 °C 1015.8 hPa Calm   1.9 km/h 63 % 0 mm
15:50 4 °C -2.2 °C 1015.8 hPa WNW 2.1 km/h 5.6 km/h 64 % 0 mm
16:01 3.9 °C -2.3 °C 1015.8 hPa WNW 1.1 km/h 3.2 km/h 64 % 0 mm
16:11 3.8 °C -2.3 °C 1015.5 hPa Calm   1.6 km/h 64 % 0 mm
16:31 3.6 °C -2.4 °C 1015.8 hPa WNW 1.8 km/h 5.6 km/h 65 % 0 mm
16:36 3.6 °C -2.2 °C 1015.5 hPa Calm     66 % 0 mm
16:41 3.5 °C -2.3 °C 1015.5 hPa Calm     66 % 0 mm
16:46 3.4 °C -2.5 °C 1015.8 hPa West 5.1 km/h 11.1 km/h 65 % 0 mm
16:51 3.4 °C -2.4 °C 1016.1 hPa Calm     66 % 0 mm
16:56 3.3 °C -2.4 °C 1015.8 hPa Calm     66 % 0 mm
17:01 3.3 °C -2.5 °C 1015.8 hPa Calm   1.9 km/h 66 % 0 mm
17:11 3.2 °C -2.2 °C 1015.8 hPa West 2.3 km/h 5.6 km/h 68 % 0 mm
17:17 3.1 °C -2.2 °C 1015.8 hPa Calm     68 % 0 mm
17:22 3.1 °C -2.5 °C 1016.1 hPa Calm   1.9 km/h 67 % 0 mm
17:27 3 °C -2.6 °C 1016.1 hPa Calm     67 % 0 mm
17:32 2.9 °C -2.4 °C 1016.1 hPa NNW 0.3 km/h   68 % 0 mm
17:42 2.8 °C -2.2 °C 1016.1 hPa NNW 0.6 km/h 1.9 km/h 70 % 0 mm
17:47 2.7 °C -2.2 °C 1016.1 hPa Calm   1.9 km/h 70 % 0 mm
17:52 2.7 °C -2.3 °C 1016.1 hPa Calm   1.9 km/h 70 % 0 mm
18:02 2.5 °C -2.4 °C 1016.1 hPa Calm     70 % 0 mm
18:12 2.3 °C -2.4 °C 1016.1 hPa NNW 1.3 km/h 3.7 km/h 71 % 0 mm
18:17 2.2 °C -2.4 °C 1016.5 hPa NNW 1 km/h 1.9 km/h 72 % 0 mm
18:22 2.1 °C -2.3 °C 1016.5 hPa WNW 0.3 km/h 1.9 km/h 73 % 0 mm
18:27 1.9 °C -2.4 °C 1016.5 hPa WNW 0.2 km/h 1.9 km/h 73 % 0 mm
18:32 1.8 °C -2.5 °C 1016.5 hPa Calm     73 % 0 mm
18:37 1.8 °C -2.6 °C 1016.1 hPa WNW 0.3 km/h 1.9 km/h 73 % 0 mm
18:52 1.5 °C -2.8 °C 1016.1 hPa West 0.3 km/h 1.9 km/h 73 % 0 mm
18:57 1.4 °C -2.7 °C 1016.5 hPa Calm   1.9 km/h 74 % 0 mm
19:04 1.3 °C -2.8 °C 1016.1 hPa Calm     74 % 0 mm
19:09 1.2 °C -2.9 °C 1016.1 hPa Calm     74 % 0 mm
19:14 1.1 °C -2.8 °C 1016.1 hPa West 0.5 km/h 1.9 km/h 75 % 0 mm
19:19 1.1 °C -2.9 °C 1016.1 hPa West 0.6 km/h 1.9 km/h 75 % 0 mm
19:29 0.9 °C -3.1 °C 1015.8 hPa West 0.6 km/h 1.9 km/h 75 % 0 mm
19:34 0.8 °C -3 °C 1015.8 hPa Calm   1.9 km/h 76 % 0 mm
19:39 0.7 °C -3.1 °C 1015.8 hPa Calm     76 % 0 mm
19:44 0.6 °C -2.9 °C 1016.1 hPa West 0.3 km/h 1.9 km/h 77 % 0 mm
19:49 0.6 °C -3 °C 1016.1 hPa West 0.6 km/h 1.9 km/h 77 % 0 mm
19:54 0.5 °C -3.1 °C 1016.5 hPa West 1 km/h 3.7 km/h 77 % 0 mm
20:04 0.4 °C -3 °C 1016.5 hPa West 0.6 km/h 3.7 km/h 78 % 0 mm
20:15 0.4 °C -3 °C 1016.5 hPa Calm     78 % 0 mm
20:20 0.4 °C -2.8 °C 1016.1 hPa Calm   1.9 km/h 79 % 0 mm
20:30 0.4 °C -2.8 °C 1015.8 hPa Calm     79 % 0 mm
20:35 0.4 °C -2.6 °C 1015.8 hPa Calm     80 % 0 mm
20:40 0.5 °C -2.6 °C 1016.1 hPa West 0.3 km/h 1.6 km/h 80 % 0 mm
20:50 0.6 °C -2.5 °C 1015.8 hPa Calm     80 % 0 mm
20:55 0.6 °C -2.4 °C 1015.8 hPa Calm   1.9 km/h 80 % 0 mm
21:00 0.7 °C -2.4 °C 1015.5 hPa Calm     80 % 0 mm
21:05 0.7 °C -2.3 °C 1015.5 hPa Calm     80 % 0 mm
21:10 0.7 °C -2.3 °C 1015.8 hPa West 1.4 km/h 3.7 km/h 80 % 0 mm
21:20 0.8 °C -2.4 °C 1015.5 hPa West 0.2 km/h 1.9 km/h 79 % 0 mm
21:25 0.9 °C -2.3 °C 1015.5 hPa West 0.3 km/h 3.2 km/h 79 % 0 mm
21:30 0.9 °C -2.3 °C 1015.5 hPa West 3.2 km/h 5.6 km/h 79 % 0 mm
21:35 0.9 °C -2.3 °C 1015.5 hPa West 1.9 km/h 3.7 km/h 79 % 0 mm
21:45 1.1 °C -2.3 °C 1015.5 hPa Calm     78 % 0 mm
21:50 1.1 °C -2.3 °C 1015.5 hPa West 0.3 km/h 1.6 km/h 78 % 0 mm
21:55 1.1 °C -2.3 °C 1015.5 hPa West 0.2 km/h 1.9 km/h 78 % 0 mm
22:05 1.2 °C -2.2 °C 1015.5 hPa Calm     78 % 0 mm
22:10 1.2 °C -2.2 °C 1015.5 hPa Calm     78 % 0 mm
22:15 1.2 °C -2.2 °C 1015.5 hPa Calm     78 % 0 mm
22:21 1.3 °C -2.1 °C 1015.5 hPa Calm     78 % 0 mm
22:25 1.3 °C -2.1 °C 1015.5 hPa Calm   1.6 km/h 78 % 0 mm
22:31 1.3 °C -2.1 °C 1015.5 hPa Calm   3.2 km/h 78 % 0 mm
22:35 1.4 °C -2.2 °C 1015.1 hPa West 1.6 km/h 3.2 km/h 77 % 0 mm
22:45 1.4 °C -2.2 °C 1015.1 hPa Calm   1.6 km/h 77 % 0 mm
22:50 1.5 °C -2.3 °C 1015.1 hPa Calm     76 % 0 mm
22:56 1.5 °C -2.3 °C 1015.1 hPa Calm   1.6 km/h 76 % 0 mm
23:01 1.6 °C -2.1 °C 1014.8 hPa Calm     77 % 0 mm
23:06 1.6 °C -2.1 °C 1014.8 hPa Calm     77 % 0 mm
23:16 1.7 °C -1.9 °C 1014.8 hPa Calm     77 % 0 mm
23:21 1.7 °C -1.9 °C 1014.8 hPa West 0.2 km/h 1.9 km/h 77 % 0 mm
23:26 1.7 °C -2.3 °C 1014.4 hPa Calm     75 % 0 mm
23:31 1.7 °C -2.1 °C 1014.4 hPa Calm     76 % 0 mm
23:36 1.7 °C -2.1 °C 1014.4 hPa Calm   1.9 km/h 76 % 0 mm
23:41 1.7 °C -2.1 °C 1014.4 hPa Calm     76 % 0 mm
23:46 1.7 °C -2.1 °C 1014.4 hPa Calm     76 % 0 mm
23:51 1.7 °C -2.1 °C 1014.1 hPa Calm     76 % 0 mm
Crab Meadow Weather
Compliments of Weather Underground - 2.5 mb

Script developed by  Jim McMurry - jmcmurry@mwt.net Adapted for the template by  Wim van der Kuil - Leuven-Template.eu

Clouds: Partly sunny and partly cloudy indicate the same amount of cloud coverage - about 50 percent. Partly sunny is used during the daytime, and partly cloudy is used at night when there is no sun.